User: anonymous   Login
Location: Camp Creek
(33.9000°N, 111.8167°W)
Time: 20:49:27
(UTC-07:00)
Language:

Cosmos 2322 Rocket - Orbit

View from above orbital plane
View from above orbital plane
View from above satellite
View from above satellite

Ground track
Ground track

The orbit data is extracted from the following two-line orbital elements,

1 23705U 95058B   15243.67648830  .00000049  00000-0  49601-4 0  9998
2 23705  71.0245 324.2923 0013987 225.2016 134.7970 14.15071267 24459
Epoch (UTC): 31 August 2015 16:14:08
Eccentricity: 0.0013987
inclination: 71.0245°
perigee height: 832 km
apogee height: 852 km
right ascension of ascending node: 324.2923°
argument of perigee: 225.2016°
revolutions per day: 14.15071267
mean anomaly at epoch: 134.7970°
orbit number at epoch: 2445

The dashed part of the orbit path shows where the satellite is in the earth's shadow,  

DLR